Showing default

RANGE A, 43773

Orbit data source: Space-Track

RANGE A, 43773 is a payload satellite owned by GaTech (US) in SSO that was launched on Mon, 03 Dec 2018 UTC via an FALCON 9 launch vehicle from the Air Force Western Test Range (AFWTR). Payloads include a variety of satellites, spacecraft, and rockets equipped with specific instruments for various scientific and technological missions. These include communications satellites like Starlink; space stations such as the ISS; scientific satellites like the Hubble; Earth observation satellites from companies like Planet Labs, Umbra, and HawkEye 360; GPS; miniature CubeSats for education and research; and military/defense satellites.

Loading next visibility...
RANGE A details
Identifier
43773, 2018-099R
Orbit
SSO
Last TLE update13 hours ago
Origin
Flag of USGaTech (US)
ManufacturerGaTech
MissionOperational Amateur Technology
Bus & MotorCUBESAT 1.5U, Unknown motor
Mass2 kg wet, 2 kg dry
Launch date (UTC)
2018-12-03 (6 years ago)
Launch vehicle
FALCON 9
Launch site
Air Force Western Test Range (AFWTR)
Object type
Payload
Rocket body
Debris
Shape & HBRBox + 2 Pan, 0.2 m
Radar Cross Section0.025 m², Small (<0.1 m²)

Expand to show TLE details & history

TLE from 13 hours ago
0 RANGE A
1 43773U 18099R   24339.89874558  .00011159  00000-0  76961-3 0  9995
2 43773  97.4764  27.7967 0013300 110.4050 249.8607 15.05900921328099
Epoch: 2024-12-04T21:34Z
Definitive object data (Epoch: 2024-12-04T21:34:11.618Z)
Latitude-0°
Longitude-9.939°
Altitude554.994 km
Speed7.582 km/s
True Right ascension01h 51m 11s
True Declination0° 00' 00"
Sunlit
Object was in full shadow at TLE epoch
Visualization TLE readout
Latitude26.07162°
Longitude-13.08019°
Altitude550.754 km
Speed7.59 km/s
Apparent Right ascension23h 24m 04s
Apparent Declination-6° 51' 46"
Sunlit
Object is in full shadow
Visualization observer readout
Local Sidereal Time08:25:00
Azimuth297.287° NW
Elevation-38.121°
Doppler factor1
Orbital elements
Apogee altitude554.938 km
Perigee altitude536.521 km
Semi-major axis6,923.866 km
Eccentricity0.00133
Inclination97.4764°
RAAN27.7967°
Arg. of periapsis110.405°
True anomaly249.71769°
Mean anomaly249.8607°
Eccentric anomaly249.78919°
Mean motion3.76721 °/min
BSTAR0.00076961
Orbital period95.56 mins
Loading maneuver chart data...
Loading historical data...
Loading historical data...
Loading historical data...
Loading historical data...
Loading historical data...
Loading historical data...
Loading historical data...

RANGE A Visibility forecast

Observer location: undefined°, undefined

Span
Click to sort rows by Start time (UTC) header in descending order
Start Az.
Max El. time (UTC)
Max El. Az.
Max El.
End time (UTC)
End Az.
6 mins2024-12-05 15:40:37.011Z33.634° NE2024-12-05 15:43:37.011Z83.195° E26.538°2024-12-05 15:46:37.011Z152.445° SSE
5 mins2024-12-06 04:00:37.011Z212.361° SW2024-12-06 04:02:37.011Z264.318° W29.042°2024-12-06 04:05:37.011Z324.985° NNW
|